N1LTP Weather Reports


Display with metric or nautical units.
time (UTC)temp
F
wind
direction
speed
MPH
gust
MPH
rain 1hr
in
rain 24hr
in
rain mn
in
humidity
%
barometer
mb
20260905153002 72 110 2.0 8.0 0.00 0.00 0.00 72 1008.8
20260905151600 73 39 1.0 10.0 0.00 0.00 0.00 72 1008.6
20260905150056 71 155 1.0 9.0 0.00 0.00 0.00 74 1008.7
20260905144555 70 138 2.0 6.0 0.00 0.00 0.00 74 1008.7
20260905143054 70 296 3.0 6.0 0.00 0.00 0.00 75 1008.7
20260905141601 70 75 2.0 9.0 0.00 0.00 0.00 77 1008.6
20260905140050 69 209 0.0 4.0 0.00 0.00 0.00 78 1008.5
20260905134550 69 326 1.0 6.0 0.00 0.00 0.00 79 1008.8
20260905133043 68 265 0.0 4.0 0.00 0.00 0.00 80 1008.9
20260905131555 67 294 0.0 5.0 0.00 0.00 0.00 82 1008.7
20260905130038 66 259 1.0 5.0 0.00 0.00 0.00 83 1008.5
20260905124544 64 274 0.0 7.0 0.00 0.00 0.00 85 1008.5
20260905123029 63 294 1.0 6.0 0.00 0.00 0.00 88 1008.4
20260905121531 62 265 0.0 4.0 0.00 0.00 0.00 90 1008.3
20260905120029 61 273 0.0 3.0 0.00 0.00 0.00 91 1008.2
20260905114537 60 277 0.0 4.0 0.00 0.00 0.00 91 1008.1
20260905113024 59 302 0.0 3.0 0.00 0.00 0.00 92 1008.1
20260905111527 58 302 0.0 0.0 0.00 0.00 0.00 91 1008.1
20260905110022 58 302 0.0 1.0 0.00 0.00 0.00 91 1007.8
20260905104521 58 302 0.0 0.0 0.00 0.00 0.00 90 1007.7
20260905103029 57 302 0.0 0.0 0.00 0.00 0.00 90 1007.7
20260905101526 57 302 0.0 0.0 0.00 0.00 0.00 90 1007.6
20260905100020 57 302 0.0 0.0 0.00 0.00 0.00 89 1007.6
20260905094519 57 302 0.0 0.0 0.00 0.00 0.00 89 1007.6
20260905093018 58 302 0.0 0.0 0.00 0.00 0.00 89 1007.5
20260905091518 58 302 0.0 0.0 0.00 0.00 0.00 89 1007.5
20260905090016 58 302 0.0 0.0 0.00 0.00 0.00 89 1007.6
20260905084544 58 302 0.0 0.0 0.00 0.00 0.00 89 1007.5
20260905083019 58 302 0.0 0.0 0.00 0.00 0.00 89 1007.5
20260905081512 59 302 0.0 0.0 0.00 0.00 0.00 89 1007.5
20260905080011 59 302 0.0 0.0 0.00 0.00 0.00 89 1007.5
20260905074511 59 302 0.0 0.0 0.00 0.00 0.00 89 1007.5
20260905073015 59 302 0.0 0.0 0.00 0.00 0.00 89 1007.6
20260905071508 59 302 0.0 0.0 0.00 0.00 0.00 88 1007.5
20260905070006 59 302 0.0 0.0 0.00 0.00 0.00 88 1007.6
20260905064504 60 302 0.0 0.0 0.00 0.00 0.00 88 1007.9
20260905063003 60 302 0.0 0.0 0.00 0.00 0.00 88 1008.0
20260905061502 60 302 0.0 0.0 0.00 0.00 0.00 88 1008.1
20260905060002 60 302 0.0 0.0 0.00 0.00 0.00 88 1008.1
20260905054604 60 302 0.0 0.0 0.00 0.00 0.00 88 1008.1
20260905053111 60 302 0.0 0.0 0.00 0.00 0.00 88 1008.1
20260905051557 61 302 0.0 0.0 0.00 0.00 0.00 88 1008.2
20260905050056 61 302 0.0 1.0 0.00 0.00 0.00 88 1008.3
20260905044554 61 302 0.0 0.0 0.00 0.00 0.00 87 1008.2
20260905043055 61 302 0.0 0.0 0.00 0.00 0.00 87 1008.2
20260905041551 62 302 0.0 0.0 0.00 0.00 0.00 86 1008.2
20260905040048 62 302 0.0 0.0 0.00 0.00 0.00 86 1008.2
20260905034550 63 302 0.0 0.0 0.00 0.00 0.00 86 1008.1
20260905033045 63 302 0.0 0.0 0.00 0.00 0.00 85 1008.1
20260905031547 63 302 0.0 0.0 0.00 0.00 0.00 85 1008.0
20260905030042 64 302 0.0 0.0 0.00 0.00 0.00 84 1008.0
20260905024603 64 302 0.0 0.0 0.00 0.00 0.00 84 1008.0
20260905023044 65 302 0.0 0.0 0.00 0.00 0.00 83 1008.1
20260905021543 66 302 0.0 0.0 0.00 0.00 0.00 82 1008.0
20260905020048 66 302 0.0 0.0 0.00 0.00 0.00 82 1008.2
20260905014539 67 302 0.0 0.0 0.00 0.00 0.00 81 1008.5
20260905013039 67 302 0.0 0.0 0.00 0.00 0.00 81 1008.4
20260905011549 68 302 0.0 0.0 0.00 0.00 0.00 80 1008.5
20260905010038 69 302 0.0 0.0 0.00 0.00 0.00 79 1008.5
20260905004548 69 302 0.0 0.0 0.00 0.00 0.00 78 1008.4
20260905003037 70 302 0.0 1.0 0.00 0.00 0.00 77 1008.3
20260905001537 71 302 0.0 0.0 0.00 0.00 0.00 76 1008.2
20260905000036 72 302 0.0 0.0 0.00 0.00 0.00 75 1008.0
20260904234545 73 302 0.0 0.0 0.00 0.00 0.00 73 1007.9
20260904233052 74 302 0.0 2.0 0.00 0.00 0.00 71 1007.7
20260904231534 75 311 1.0 3.0 0.00 0.00 0.00 70 1007.6
20260904230034 75 321 2.0 4.0 0.00 0.00 0.00 69 1007.4
20260904224541 76 304 1.0 3.0 0.00 0.00 0.00 69 1007.5
20260904223040 77 305 0.0 3.0 0.00 0.00 0.00 67 1007.4
20260904221532 77 306 0.0 2.0 0.00 0.00 0.00 66 1007.3
20260904220034 78 306 1.0 5.0 0.00 0.00 0.00 62 1007.3
20260904214540 78 300 1.0 9.0 0.00 0.00 0.00 61 1007.3
20260904213029 79 300 1.0 4.0 0.00 0.00 0.00 61 1007.3
20260904211528 79 302 0.0 6.0 0.00 0.00 0.00 59 1007.1
20260904210027 80 302 3.0 10.0 0.00 0.00 0.00 57 1007.1
20260904204526 80 321 1.0 8.0 0.00 0.00 0.00 58 1007.2
20260904203026 80 323 3.0 11.0 0.00 0.00 0.00 56 1007.3
20260904201525 80 320 3.0 9.0 0.00 0.00 0.00 55 1007.3
20260904200029 81 281 1.0 5.0 0.00 0.00 0.00 57 1007.2
20260904194523 81 325 0.0 6.0 0.00 0.00 0.00 57 1007.0
20260904193025 81 311 2.0 9.0 0.00 0.00 0.00 58 1007.1
20260904191521 80 190 0.0 5.0 0.00 0.00 0.00 61 1007.1
20260904190017 79 286 2.0 8.0 0.00 0.00 0.00 65 1007.5
20260904184522 79 301 0.0 6.0 0.00 0.00 0.00 66 1007.4
20260904183017 80 311 1.0 5.0 0.00 0.00 0.00 63 1007.4
20260904181515 80 296 1.0 11.0 0.00 0.00 0.00 62 1007.4
20260904180012 80 302 3.0 8.0 0.00 0.00 0.00 59 1007.3
20260904174512 80 242 2.0 9.0 0.00 0.00 0.00 62 1007.5
20260904173012 80 273 1.0 7.0 0.00 0.00 0.00 61 1007.6
20260904171509 80 254 2.0 9.0 0.00 0.00 0.00 62 1007.7
20260904170006 80 273 2.0 6.0 0.00 0.00 0.00 65 1007.8
20260904164505 79 275 2.0 7.0 0.00 0.00 0.00 65 1007.9
20260904163003 79 270 1.0 7.0 0.00 0.00 0.00 65 1007.9
20260904161603 79 306 1.0 9.0 0.00 0.00 0.00 67 1008.0
20260904160059 79 338 5.0 11.0 0.00 0.00 0.00 65 1008.2
20260904154553 79 224 1.0 9.0 0.00 0.00 0.00 69 1008.3